Time,TemperatureF,DewpointF,PressureIn,WindDirection,WindDirectionDegrees,WindSpeedMPH,WindSpeedGustMPH,Humidity,HourlyPrecipIn,Conditions,Clouds,dailyrainin,SoftwareType,DateUTC
2013-06-14 00:12:00,47.0,42.0,-100.00,NE,35,0.0,2.0,84,0.00,,,0.00,,2013-06-14 04:12:00,
2013-06-14 00:22:00,47.0,42.0,-100.00,NE,35,0.0,2.0,84,0.00,,,0.00,,2013-06-14 04:22:00,
2013-06-14 00:33:00,47.0,42.0,-100.00,NE,35,0.0,2.0,84,0.00,,,0.00,,2013-06-14 04:33:00,
2013-06-14 00:53:00,43.0,40.0,-100.00,North,7,1.0,2.0,90,0.00,,,0.00,,2013-06-14 04:53:00,
2013-06-14 02:12:00,42.0,40.0,-100.00,East,88,0.0,2.0,91,-99.99,,,0.00,,2013-06-14 06:12:00,
2013-06-14 02:22:00,42.0,40.0,-100.00,East,88,0.0,2.0,91,-99.99,,,0.00,,2013-06-14 06:22:00,
2013-06-14 03:33:00,40.0,38.0,-100.00,North,356,1.0,2.0,94,0.00,,,0.00,,2013-06-14 07:33:00,
2013-06-14 05:02:00,38.0,37.0,-100.00,NNE,31,0.0,0.0,97,0.00,,,0.00,,2013-06-14 09:02:00,
2013-06-14 05:12:00,38.0,37.0,-100.00,NNE,31,0.0,0.0,97,0.00,,,0.00,,2013-06-14 09:12:00,
2013-06-14 05:22:00,38.0,37.0,-100.00,NNE,31,0.0,0.0,97,0.00,,,0.00,,2013-06-14 09:22:00,
2013-06-14 05:33:00,38.0,37.0,-100.00,NNE,31,0.0,0.0,97,0.00,,,0.00,,2013-06-14 09:33:00,
2013-06-14 06:01:00,38.0,37.0,-100.00,NE,38,0.0,0.0,98,0.00,,,0.00,,2013-06-14 10:01:00,
2013-06-14 06:11:00,38.0,37.0,-100.00,NE,38,0.0,0.0,98,0.00,,,0.00,,2013-06-14 10:11:00,
2013-06-14 06:22:00,38.0,37.0,-100.00,NE,38,0.0,0.0,98,0.00,,,0.00,,2013-06-14 10:22:00,
2013-06-14 06:34:00,38.0,37.0,-100.00,NE,38,0.0,0.0,98,0.00,,,0.00,,2013-06-14 10:34:00,
2013-06-14 07:02:00,38.0,37.0,-100.00,North,7,0.0,0.0,98,0.00,,,0.00,,2013-06-14 11:02:00,
2013-06-14 07:11:00,38.0,37.0,-100.00,North,7,0.0,0.0,98,0.00,,,0.00,,2013-06-14 11:11:00,
2013-06-14 07:23:00,38.0,37.0,-100.00,North,7,0.0,0.0,98,0.00,,,0.00,,2013-06-14 11:23:00,
2013-06-14 07:32:00,38.0,37.0,-100.00,North,7,0.0,0.0,98,0.00,,,0.00,,2013-06-14 11:32:00,
2013-06-14 08:12:00,49.0,48.0,-100.00,NE,47,1.0,3.0,97,0.00,,,0.00,,2013-06-14 12:12:00,
2013-06-14 08:22:00,49.0,48.0,-100.00,NE,47,1.0,3.0,97,0.00,,,0.00,,2013-06-14 12:22:00,
2013-06-14 08:33:00,49.0,48.0,-100.00,NE,47,1.0,3.0,97,0.00,,,0.00,,2013-06-14 12:33:00,
2013-06-14 09:02:00,58.0,50.0,-100.00,ESE,110,5.0,10.0,74,0.00,,,0.00,,2013-06-14 13:02:00,
2013-06-14 09:11:00,58.0,50.0,-100.00,ESE,110,5.0,10.0,74,0.00,,,0.00,,2013-06-14 13:11:00,
2013-06-14 09:22:00,58.0,50.0,-100.00,ESE,110,5.0,10.0,74,0.00,,,0.00,,2013-06-14 13:22:00,
2013-06-14 09:33:00,58.0,50.0,-100.00,ESE,110,5.0,10.0,74,0.00,,,0.00,,2013-06-14 13:33:00,
2013-06-14 10:02:00,64.0,50.0,-100.00,SE,146,6.0,12.0,60,0.00,,,0.00,,2013-06-14 14:02:00,
2013-06-14 10:11:00,64.0,50.0,-100.00,SE,146,6.0,12.0,60,0.00,,,0.00,,2013-06-14 14:11:00,
2013-06-14 10:22:00,64.0,50.0,-100.00,SE,146,6.0,12.0,60,0.00,,,0.00,,2013-06-14 14:22:00,
2013-06-14 10:34:00,64.0,50.0,-100.00,SE,146,6.0,12.0,60,0.00,,,0.00,,2013-06-14 14:34:00,
2013-06-14 11:01:00,66.0,47.0,-100.00,SSE,147,9.0,15.0,50,0.00,,,0.00,,2013-06-14 15:01:00,
2013-06-14 11:11:00,66.0,47.0,-100.00,SSE,147,9.0,15.0,50,0.00,,,0.00,,2013-06-14 15:11:00,
2013-06-14 11:23:00,66.0,47.0,-100.00,SSE,147,9.0,15.0,50,0.00,,,0.00,,2013-06-14 15:23:00,
2013-06-14 11:33:00,66.0,47.0,-100.00,SSE,147,9.0,15.0,50,0.00,,,0.00,,2013-06-14 15:33:00,
2013-06-14 12:01:00,69.0,46.0,-100.00,SE,126,7.0,16.0,44,0.00,,,0.00,,2013-06-14 16:01:00,
2013-06-14 12:11:00,69.0,46.0,-100.00,SE,126,7.0,16.0,44,0.00,,,0.00,,2013-06-14 16:11:00,
2013-06-14 12:22:00,69.0,46.0,-100.00,SE,126,7.0,16.0,44,0.00,,,0.00,,2013-06-14 16:22:00,
2013-06-14 12:33:00,69.0,46.0,-100.00,SE,126,7.0,16.0,44,0.00,,,0.00,,2013-06-14 16:33:00,
2013-06-14 13:02:00,71.0,47.0,-100.00,SE,130,7.0,14.0,43,0.00,,,0.00,,2013-06-14 17:02:00,
2013-06-14 13:11:00,71.0,47.0,-100.00,SE,130,7.0,14.0,43,0.00,,,0.00,,2013-06-14 17:11:00,
2013-06-14 13:22:00,71.0,47.0,-100.00,SE,130,7.0,14.0,43,0.00,,,0.00,,2013-06-14 17:22:00,
2013-06-14 13:34:00,71.0,47.0,-100.00,SE,130,7.0,14.0,43,0.00,,,0.00,,2013-06-14 17:34:00,
2013-06-14 14:02:00,73.0,48.0,-100.00,SSE,153,7.0,14.0,41,0.00,,,0.00,,2013-06-14 18:02:00,
2013-06-14 14:11:00,73.0,48.0,-100.00,SSE,153,7.0,14.0,41,0.00,,,0.00,,2013-06-14 18:11:00,
2013-06-14 14:22:00,73.0,48.0,-100.00,SSE,153,7.0,14.0,41,0.00,,,0.00,,2013-06-14 18:22:00,
2013-06-14 14:32:00,73.0,48.0,-100.00,SSE,153,7.0,14.0,41,0.00,,,0.00,,2013-06-14 18:32:00,
2013-06-14 15:01:00,72.0,45.0,-100.00,South,169,6.0,15.0,38,0.00,,,0.00,,2013-06-14 19:01:00,
2013-06-14 15:11:00,72.0,45.0,-100.00,South,169,6.0,15.0,38,0.00,,,0.00,,2013-06-14 19:11:00,
2013-06-14 15:22:00,72.0,45.0,-100.00,South,169,6.0,15.0,38,0.00,,,0.00,,2013-06-14 19:22:00,
2013-06-14 15:32:00,72.0,45.0,-100.00,South,169,6.0,15.0,38,0.00,,,0.00,,2013-06-14 19:32:00,
2013-06-14 16:02:00,72.0,47.0,-100.00,SSE,160,9.0,19.0,41,0.00,,,0.00,,2013-06-14 20:02:00,
2013-06-14 16:11:00,72.0,47.0,-100.00,SSE,160,9.0,19.0,41,0.00,,,0.00,,2013-06-14 20:11:00,
2013-06-14 16:22:00,72.0,47.0,-100.00,SSE,160,9.0,19.0,41,0.00,,,0.00,,2013-06-14 20:22:00,
2013-06-14 16:33:00,72.0,47.0,-100.00,SSE,160,9.0,19.0,41,0.00,,,0.00,,2013-06-14 20:33:00,
2013-06-14 17:02:00,69.0,47.0,-100.00,SE,130,8.0,17.0,45,0.00,,,0.00,,2013-06-14 21:02:00,
2013-06-14 17:11:00,69.0,47.0,-100.00,SE,130,8.0,17.0,45,0.00,,,0.00,,2013-06-14 21:11:00,
2013-06-14 17:22:00,69.0,47.0,-100.00,SE,130,8.0,17.0,45,0.00,,,0.00,,2013-06-14 21:22:00,
2013-06-14 17:34:00,69.0,47.0,-100.00,SE,130,8.0,17.0,45,0.00,,,0.00,,2013-06-14 21:34:00,
2013-06-14 18:02:00,65.0,43.0,-100.00,ESE,122,4.0,14.0,44,0.00,,,0.00,,2013-06-14 22:02:00,
2013-06-14 18:11:00,65.0,43.0,-100.00,ESE,122,4.0,14.0,44,0.00,,,0.00,,2013-06-14 22:11:00,
2013-06-14 18:22:00,65.0,43.0,-100.00,ESE,122,4.0,14.0,44,0.00,,,0.00,,2013-06-14 22:22:00,
2013-06-14 18:33:00,65.0,43.0,-100.00,ESE,122,4.0,14.0,44,0.00,,,0.00,,2013-06-14 22:33:00,
2013-06-14 19:02:00,60.0,45.0,-100.00,East,97,3.0,6.0,58,0.01,,,0.01,,2013-06-14 23:02:00,
2013-06-14 19:11:00,60.0,45.0,-100.00,East,97,3.0,6.0,58,0.01,,,0.01,,2013-06-14 23:11:00,
2013-06-14 19:22:00,60.0,45.0,-100.00,East,97,3.0,6.0,58,0.01,,,0.01,,2013-06-14 23:22:00,
2013-06-14 19:33:00,60.0,45.0,-100.00,East,97,3.0,6.0,58,0.01,,,0.01,,2013-06-14 23:33:00,
2013-06-14 20:01:00,58.0,47.0,-100.00,ESE,114,7.0,13.0,66,0.00,,,0.01,,2013-06-15 00:01:00,
2013-06-14 20:11:00,58.0,47.0,-100.00,ESE,114,7.0,13.0,66,0.00,,,0.01,,2013-06-15 00:11:00,
2013-06-14 20:23:00,58.0,47.0,-100.00,ESE,114,7.0,13.0,66,0.00,,,0.01,,2013-06-15 00:23:00,
2013-06-14 20:34:00,58.0,47.0,-100.00,ESE,114,7.0,13.0,66,0.00,,,0.01,,2013-06-15 00:34:00,
2013-06-14 21:01:00,56.0,43.0,-100.00,ESE,119,6.0,12.0,61,0.00,,,0.01,,2013-06-15 01:01:00,
2013-06-14 21:11:00,56.0,43.0,-100.00,ESE,119,6.0,12.0,61,0.00,,,0.01,,2013-06-15 01:11:00,
2013-06-14 21:22:00,56.0,43.0,-100.00,ESE,119,6.0,12.0,61,0.00,,,0.01,,2013-06-15 01:22:00,
2013-06-14 21:33:00,56.0,43.0,-100.00,ESE,119,6.0,12.0,61,0.00,,,0.01,,2013-06-15 01:33:00,
2013-06-14 22:02:00,54.0,38.0,-100.00,ESE,112,5.0,10.0,54,0.00,,,0.01,,2013-06-15 02:02:00,
2013-06-14 22:11:00,54.0,38.0,-100.00,ESE,112,5.0,10.0,54,0.00,,,0.01,,2013-06-15 02:11:00,
2013-06-14 22:23:00,54.0,38.0,-100.00,ESE,112,5.0,10.0,54,0.00,,,0.01,,2013-06-15 02:23:00,
2013-06-14 22:33:00,54.0,38.0,-100.00,ESE,112,5.0,10.0,54,0.00,,,0.01,,2013-06-15 02:33:00,
2013-06-14 23:01:00,52.0,37.0,-100.00,East,94,5.0,9.0,56,0.00,,,0.01,,2013-06-15 03:01:00,
2013-06-14 23:11:00,52.0,37.0,-100.00,East,94,5.0,9.0,56,0.00,,,0.01,,2013-06-15 03:11:00,
2013-06-14 23:24:00,52.0,37.0,-100.00,East,94,5.0,9.0,56,0.00,,,0.01,,2013-06-15 03:24:00,
2013-06-14 23:32:00,52.0,37.0,-100.00,East,94,5.0,9.0,56,0.00,,,0.01,,2013-06-15 03:32:00,